Dothan, AL

6:56 PM CDT on April 26, 2017 (GMT -0500)
Dothan Regional

Weather History for KDHN - February, 2014

Change the Weather History Date:

Wednesday, February 5, 2014

  Actual Average Record
Temperature  
Mean Temperature 53 °F 51 °F  
Max Temperature 69 °F 63 °F 83 °F (1943)
Min Temperature 37 °F 39 °F 22 °F (1947)
Degree Days  
Heating Degree Days 12 14  
Month to date heating degree days 32 73  
Since 1 July heating degree days 1369 1289  
Growing Degree Days 4 (Base 50)    
Moisture  
Dew Point 50 °F    
Average Humidity 81    
Maximum Humidity 100    
Minimum Humidity 57    
Precipitation  
Precipitation 0.20 in 0.14 in 0.93 in (1964)
Month to date precipitation 0.41 0.70  
Year to date precipitation 3.34 5.33  
Sea Level Pressure  
Sea Level Pressure 30.09 in    
Wind  
Wind Speed 13 mph (WNW)    
Max Wind Speed 18 mph    
Max Gust Speed 25 mph    
Visibility 8 miles    
Events Rain    
T = Trace of Precipitation, MM = Missing Value Source: NWS Daily Summary

Daily Weather History Graph

Daily Weather History Graph

Search for Another Location

Airport or City:

Trip Planner

Search our weather history database for the weather conditions in past years. The results will help you decide how hot, cold, wet, or windy it might be!

Date:

Astronomy

Feb. 05, 2014 Rise Set
Actual Time 6:31 AM CST 5:20 PM CST
Civil Twilight 6:06 AM CST 5:45 PM CST
Nautical Twilight 5:37 AM CST 6:14 PM CST
Astronomical Twilight 5:08 AM CST 6:43 PM CST
Moon 10:12 AM CST (2/5) 11:45 PM CST (2/5)
Length of Visible Light 11h 39m
Length of Day
10h 49m
Waxing Crescent, 39% of the Moon is Illuminated
Feb 5
Waxing Crescent
Feb 6
First Quarter
Feb 14
Full
Feb 22
Last Quarter
Mar 1
New

Hourly Weather History & Observations

Time (CST) Temp. Windchill Dew Point Humidity Pressure Visibility Wind Dir Wind Speed Gust Speed Precip Events Conditions
12:53 AM 64.9 °F - 64.0 °F 97% 29.96 in 7.0 mi South 12.7 mph - N/A   Overcast
1:22 AM 64.4 °F - 64.4 °F 100% 29.96 in 2.0 mi South 15.0 mph - N/A   Overcast
1:34 AM 64.4 °F - 64.4 °F 100% 29.96 in 1.8 mi South 12.7 mph - N/A   Overcast
1:53 AM 66.0 °F - 64.9 °F 96% 29.95 in 2.5 mi South 15.0 mph - N/A   Overcast
2:00 AM 66.2 °F - 64.4 °F 94% 29.95 in 4.0 mi SSW 15.0 mph 21.9 mph N/A   Overcast
2:53 AM 68.0 °F - 66.9 °F 96% 29.93 in 6.0 mi SSW 18.4 mph 25.3 mph N/A   Overcast
3:13 AM 68.0 °F - 66.2 °F 94% 29.95 in 10.0 mi SSW 13.8 mph 25.3 mph N/A   Overcast
3:53 AM 69.1 °F - 66.9 °F 93% 29.94 in 10.0 mi SW 11.5 mph - 0.00 in Rain Light Rain
4:51 AM 64.4 °F - 62.6 °F 94% 29.97 in 2.5 mi WNW 18.4 mph 25.3 mph 0.10 in Rain Heavy Rain
4:53 AM 64.9 °F - 63.0 °F 93% 29.97 in 2.0 mi West 18.4 mph 24.2 mph 0.15 in Rain Heavy Rain
5:03 AM 64.4 °F - 62.6 °F 94% 29.98 in 3.0 mi West 15.0 mph 23.0 mph 0.05 in Rain Rain
5:13 AM 64.4 °F - 62.6 °F 94% 29.99 in 10.0 mi West 12.7 mph - 0.05 in   Overcast
5:53 AM 64.0 °F - 60.1 °F 87% 29.99 in 10.0 mi West 13.8 mph - 0.05 in   Overcast
6:53 AM 63.0 °F - 61.0 °F 93% 30.02 in 10.0 mi WNW 9.2 mph - N/A   Overcast
7:03 AM 62.6 °F - 60.8 °F 94% 30.03 in 10.0 mi WNW 6.9 mph - N/A   Overcast
7:10 AM 62.6 °F - 60.8 °F 94% 30.03 in 10.0 mi WNW 8.1 mph - N/A   Overcast
7:24 AM 62.6 °F - 60.8 °F 94% 30.03 in 10.0 mi WNW 10.4 mph - N/A   Mostly Cloudy
7:53 AM 61.0 °F - 55.9 °F 83% 30.04 in 10.0 mi WNW 11.5 mph - N/A   Overcast
8:53 AM 59.0 °F - 53.1 °F 81% 30.08 in 10.0 mi NW 17.3 mph - N/A   Scattered Clouds
9:53 AM 61.0 °F - 50.0 °F 67% 30.09 in 10.0 mi NNW 16.1 mph - N/A   Clear
10:53 AM 57.9 °F - 48.0 °F 70% 30.11 in 10.0 mi WNW 13.8 mph - N/A   Overcast
11:53 AM 57.9 °F - 46.0 °F 65% 30.11 in 10.0 mi WNW 16.1 mph - N/A   Scattered Clouds
12:53 PM 57.0 °F - 44.1 °F 62% 30.09 in 10.0 mi NW 15.0 mph 25.3 mph N/A   Clear
1:53 PM 57.9 °F - 44.1 °F 60% 30.09 in 10.0 mi NNW 16.1 mph 21.9 mph N/A   Clear
2:53 PM 55.9 °F - 41.0 °F 57% 30.11 in 10.0 mi NW 15.0 mph - N/A   Clear
3:53 PM 53.1 °F - 39.0 °F 59% 30.14 in 10.0 mi NNW 12.7 mph 20.7 mph N/A   Clear
4:53 PM 48.9 °F - 37.0 °F 64% 30.17 in 10.0 mi NW 15.0 mph - N/A   Clear
5:53 PM 45.0 °F 39.3 °F 36.0 °F 71% 30.19 in 10.0 mi NNW 11.5 mph - N/A   Clear
6:53 PM 43.0 °F 37.2 °F 35.1 °F 74% 30.21 in 10.0 mi NNW 10.4 mph - N/A   Clear
7:53 PM 43.0 °F 35.7 °F 34.0 °F 71% 30.22 in 10.0 mi NNW 15.0 mph 20.7 mph N/A   Clear
8:53 PM 41.0 °F 34.7 °F 33.1 °F 73% 30.25 in 10.0 mi North 10.4 mph - N/A   Scattered Clouds
9:02 PM 41.0 °F 35.2 °F 33.8 °F 76% 30.24 in 10.0 mi NNW 9.2 mph - N/A   Mostly Cloudy
9:11 PM 41.0 °F 33.9 °F 32.0 °F 70% 30.24 in 10.0 mi North 12.7 mph 20.7 mph N/A   Scattered Clouds
9:20 PM 41.0 °F 33.9 °F 32.0 °F 70% 30.24 in 10.0 mi North 12.7 mph - N/A   Mostly Cloudy
9:53 PM 39.9 °F 32.1 °F 30.9 °F 70% 30.25 in 10.0 mi NNW 13.8 mph 23.0 mph N/A   Mostly Cloudy
10:01 PM 39.2 °F 31.6 °F 30.2 °F 70% 30.25 in 10.0 mi NNW 12.7 mph - N/A   Scattered Clouds
10:53 PM 39.0 °F 31.8 °F 30.0 °F 70% 30.26 in 10.0 mi NNW 11.5 mph - N/A   Clear
11:53 PM 37.0 °F 32.4 °F 30.9 °F 79% 30.27 in 10.0 mi NNW 5.8 mph - N/A   Clear